This is the latest recevied weather packets stored in our database for station/object W8XLR-2. If no packets are shown the sender has not sent any weather packets the latest 10 day(s).
| Time | Temp. | Humidity | Pressure | Rain* | Wind** | Luminosity | Snow |
|---|---|---|---|---|---|---|---|
| 1778023647 | 16.11° C | 92% | 1010 hPa | 0 mm | - | - | - |
| 1778023610 | 16.11° C | 92% | 1010 hPa | 0 mm | - | - | - |
| 1778023009 | 16.11° C | 92% | 1010 hPa | 0 mm | - | - | - |
| 1778022410 | 16.11° C | 92% | 1009.9 hPa | 0 mm | - | - | - |
| 1778021853 | 16.11° C | 91% | 1010.4 hPa | 0 mm | - | - | - |
| 1778021808 | 16.11° C | 91% | 1010.4 hPa | 0 mm | - | - | - |
| 1778021321 | 16.11° C | 91% | 1010.4 hPa | 0 mm | - | - | - |
| 1778021209 | 16.11° C | 91% | 1010.4 hPa | 0 mm | - | - | - |
| 1778020608 | 16.11° C | 91% | 1010.4 hPa | 0 mm | - | - | - |
| 1778020008 | 16.11° C | 91% | 1010.5 hPa | 0 mm | - | - | - |
| 1778019408 | 16.11° C | 91% | 1010.5 hPa | 0 mm | - | - | - |
| 1778018812 | 16.11° C | 91% | 1010.3 hPa | 0.25 mm | - | - | - |
| 1778018210 | 16.11° C | 90% | 1010.2 hPa | 0.76 mm | - | - | - |
| 1778017625 | 16.11° C | 90% | 1010.2 hPa | 0.76 mm | - | - | - |
| 1778017010 | 16.11° C | 89% | 1010.3 hPa | 0.76 mm | - | - | - |
| 1778016412 | 16.11° C | 86% | 1010.3 hPa | 0.76 mm | - | - | - |
| 1778015809 | 16.11° C | 86% | 1010.3 hPa | 0.76 mm | - | - | - |
| 1778015208 | 18.33° C | 76% | 1010.5 hPa | 0.51 mm | - | - | - |
| 1778014608 | 19.44° C | 69% | 1010 hPa | 0 mm | - | - | - |
| 1778014017 | 19.44° C | 69% | 1010 hPa | 0 mm | - | - | - |
| 1778013411 | 20° C | 64% | 1009.9 hPa | 0 mm | - | - | - |
| 1778012808 | 20° C | 63% | 1009.9 hPa | 0 mm | - | - | - |
| 1778012209 | 20° C | 63% | 1009.9 hPa | 0 mm | - | - | - |
| 1778011608 | 20.56° C | 63% | 1009.9 hPa | 0 mm | - | - | - |
| 1778011015 | 20° C | 63% | 1010.2 hPa | 0 mm | - | - | - |
* Rain latest hour (hover to see other rain measurements)
** Current wind speed in m/s (hover to see current wind gust speed)